When you browse on this site, cookies collect data to enhance your experience and personalize the content and advertising you see.
Visit our Privacy Policy to learn more. By continuing to use the site, you agree to this use of cookies and data.
  • en France
  • Liste des pays
  • À 7 jours
  • Température de l'eau
  • Carte météo
  • Widgets météo
  • user-avatar
    Se connecter

    Météo par heure à Namur

    Ce jour, 26 Janvier, Dimanche

    Heure Température Précipitation Vent Pression Humidité
    00:00 +1°C° 0 mm 3 m/s 753 mmHg 87%
    01:00 +1°C° 0 mm 3 m/s 752 mmHg 88%
    02:00 +1°C° 0 mm 3 m/s 752 mmHg 88%
    03:00 +1°C° 0 mm 3 m/s 752 mmHg 88%
    04:00 +1°C° 0 mm 3 m/s 752 mmHg 89%
    05:00 +1°C° 0 mm 3 m/s 752 mmHg 90%
    06:00 +1°C° 0 mm 3 m/s 751 mmHg 90%
    07:00 0°C° 0 mm 4 m/s 752 mmHg 89%
    08:00 +1°C° 0 mm 4 m/s 752 mmHg 88%
    09:00 +3°C° 0 mm 4 m/s 752 mmHg 87%
    10:00 +3°C° 0 mm 5 m/s 752 mmHg 85%
    11:00 +5°C° 0 mm 5 m/s 751 mmHg 82%
    12:00 +7°C° 0 mm 6 m/s 751 mmHg 79%
    13:00 +7°C° 0 mm 5 m/s 751 mmHg 80%
    14:00 +7°C° 0 mm 5 m/s 750 mmHg 82%
    15:00 +6°C° 0 mm 5 m/s 750 mmHg 83%
    16:00 +6°C° 0 mm 5 m/s 750 mmHg 86%
    17:00 +5°C° 0 mm 5 m/s 750 mmHg 88%
    18:00 +5°C° 0 mm 5 m/s 750 mmHg 91%
    19:00 +5°C° 0 mm 5 m/s 750 mmHg 91%
    20:00 +5°C° 0 mm 5 m/s 750 mmHg 91%
    21:00 +5°C° 0 mm 5 m/s 750 mmHg 91%
    22:00 +4°C° 0 mm 6 m/s 749 mmHg 90%
    23:00 +4°C° 0 mm 6 m/s 749 mmHg 89%

    Demain, 27 Janvier, Lundi

    Heure Température Précipitation Vent Pression Humidité
    00:00 +5°C° 0 mm 6 m/s 748 mmHg 88%
    01:00 +5°C° 0.3 mm 7 m/s 748 mmHg 88%
    02:00 +5°C° 0.3 mm 7 m/s 747 mmHg 88%
    03:00 +5°C° 0.3 mm 8 m/s 747 mmHg 88%
    04:00 +5°C° 0.5 mm 7 m/s 747 mmHg 89%
    05:00 +6°C° 0.5 mm 7 m/s 746 mmHg 89%
    06:00 +7°C° 0.5 mm 6 m/s 746 mmHg 90%
    07:00 +7°C° 0.6 mm 6 m/s 746 mmHg 90%
    08:00 +7°C° 0.6 mm 6 m/s 746 mmHg 91%
    09:00 +7°C° 0.6 mm 6 m/s 745 mmHg 91%
    10:00 +7°C° 0.8 mm 6 m/s 745 mmHg 89%
    11:00 +6°C° 0.8 mm 7 m/s 744 mmHg 87%
    12:00 +8°C° 0.8 mm 7 m/s 744 mmHg 86%
    13:00 +6°C° 0.7 mm 7 m/s 743 mmHg 86%
    14:00 +7°C° 0.7 mm 6 m/s 743 mmHg 86%
    15:00 +7°C° 0.7 mm 6 m/s 742 mmHg 85%
    16:00 +5°C° 0.1 mm 6 m/s 742 mmHg 87%
    17:00 +6°C° 0.1 mm 5 m/s 741 mmHg 89%
    18:00 +6°C° 0.1 mm 5 m/s 741 mmHg 90%
    19:00 +6°C° 0.3 mm 5 m/s 740 mmHg 91%
    20:00 +6°C° 0.3 mm 5 m/s 740 mmHg 91%
    21:00 +6°C° 0.3 mm 5 m/s 739 mmHg 91%
    22:00 +5°C° 1.7 mm 6 m/s 738 mmHg 91%
    23:00 +5°C° 1.7 mm 6 m/s 737 mmHg 92%

    Après-demain, 28 Janvier, Mardi

    Heure Température Précipitation Vent Pression Humidité
    00:00 +5°C° 1.7 mm 6 m/s 736 mmHg 92%
    01:00 +5°C° 0.5 mm 6 m/s 735 mmHg 90%
    02:00 +4°C° 0.5 mm 6 m/s 735 mmHg 89%
    03:00 +4°C° 0.5 mm 6 m/s 735 mmHg 87%
    04:00 +4°C° 0.1 mm 6 m/s 735 mmHg 87%
    05:00 +3°C° 0.1 mm 6 m/s 734 mmHg 88%
    06:00 +3°C° 0.1 mm 6 m/s 734 mmHg 89%
    07:00 +2°C° 0.6 mm 7 m/s 735 mmHg 90%
    08:00 +1°C° 0.6 mm 8 m/s 735 mmHg 91%
    09:00 0°C° 0.6 mm 9 m/s 736 mmHg 92%
    10:00 +1°C° 0.2 mm 9 m/s 737 mmHg 82%
    11:00 +1°C° 0.2 mm 10 m/s 737 mmHg 73%
    12:00 +2°C° 0.2 mm 10 m/s 738 mmHg 63%
    13:00 +1°C° 0.4 mm 9 m/s 739 mmHg 72%
    14:00 +1°C° 0.4 mm 9 m/s 739 mmHg 80%
    15:00 0°C° 0.4 mm 9 m/s 739 mmHg 88%
    16:00 0°C° 1.2 mm 8 m/s 739 mmHg 89%
    17:00 0°C° 1.2 mm 8 m/s 739 mmHg 89%
    18:00 0°C° 1.2 mm 8 m/s 739 mmHg 90%
    19:00 0°C° 0.2 mm 8 m/s 739 mmHg 88%
    20:00 0°C° 0.2 mm 7 m/s 740 mmHg 86%
    21:00 0°C° 0.2 mm 7 m/s 740 mmHg 84%
    22:00 +1°C° 0.1 mm 6 m/s 740 mmHg 84%
    23:00 -1°C° 0.1 mm 6 m/s 740 mmHg 83%

    29 Janvier, Mercredi

    Heure Température Précipitation Vent Pression Humidité
    00:00 0°C° 0.1 mm 5 m/s 740 mmHg 83%
    01:00 0°C° 0 mm 5 m/s 741 mmHg 83%
    02:00 -1°C° 0 mm 5 m/s 741 mmHg 83%
    03:00 -1°C° 0 mm 5 m/s 742 mmHg 84%
    04:00 -1°C° 0 mm 5 m/s 742 mmHg 84%
    05:00 -1°C° 0 mm 5 m/s 743 mmHg 83%
    06:00 -2°C° 0 mm 5 m/s 743 mmHg 83%
    07:00 -2°C° 0 mm 6 m/s 744 mmHg 82%
    08:00 -2°C° 0 mm 6 m/s 745 mmHg 81%
    09:00 -2°C° 0 mm 6 m/s 746 mmHg 80%
    10:00 -1°C° 0 mm 6 m/s 746 mmHg 77%
    11:00 0°C° 0 mm 7 m/s 746 mmHg 73%
    12:00 +2°C° 0 mm 7 m/s 747 mmHg 70%
    13:00 +2°C° 0.1 mm 6 m/s 747 mmHg 71%
    14:00 +2°C° 0.1 mm 6 m/s 747 mmHg 72%
    15:00 +2°C° 0.1 mm 5 m/s 747 mmHg 74%
    16:00 +2°C° 0.1 mm 5 m/s 748 mmHg 78%
    17:00 +1°C° 0.1 mm 4 m/s 748 mmHg 83%
    18:00 +1°C° 0.1 mm 3 m/s 749 mmHg 88%
    19:00 0°C° 0 mm 3 m/s 749 mmHg 88%
    20:00 0°C° 0 mm 3 m/s 750 mmHg 88%
    21:00 0°C° 0 mm 3 m/s 750 mmHg 89%
    22:00 0°C° 0 mm 3 m/s 750 mmHg 89%
    23:00 0°C° 0 mm 3 m/s 751 mmHg 90%

    30 Janvier, Jeudi

    Heure Température Précipitation Vent Pression Humidité
    00:00 -1°C° 0 mm 3 m/s 751 mmHg 91%
    01:00 -1°C° 0 mm 3 m/s 751 mmHg 91%
    02:00 -1°C° 0 mm 3 m/s 751 mmHg 92%
    03:00 -1°C° 0 mm 3 m/s 751 mmHg 92%
    04:00 -1°C° 0 mm 3 m/s 751 mmHg 92%
    05:00 -1°C° 0 mm 3 m/s 751 mmHg 93%
    06:00 -1°C° 0 mm 3 m/s 751 mmHg 93%
    07:00 0°C° 0 mm 3 m/s 752 mmHg 91%
    08:00 +1°C° 0 mm 3 m/s 752 mmHg 90%
    09:00 +2°C° 0 mm 3 m/s 752 mmHg 88%
    10:00 +3°C° 0 mm 4 m/s 752 mmHg 85%
    11:00 +4°C° 0 mm 4 m/s 752 mmHg 82%
    12:00 +5°C° 0 mm 4 m/s 751 mmHg 80%
    13:00 +4°C° 0 mm 4 m/s 751 mmHg 81%
    14:00 +4°C° 0 mm 4 m/s 750 mmHg 82%
    15:00 +4°C° 0 mm 3 m/s 750 mmHg 83%
    16:00 +4°C° 0 mm 4 m/s 750 mmHg 85%
    17:00 +3°C° 0 mm 4 m/s 749 mmHg 87%
    18:00 +1°C° 0 mm 4 m/s 749 mmHg 89%
    19:00 +2°C° 0 mm 5 m/s 749 mmHg 87%
    20:00 +2°C° 0 mm 5 m/s 749 mmHg 86%
    21:00 +2°C° 0 mm 5 m/s 749 mmHg 85%
    22:00 +2°C° 0 mm 5 m/s 749 mmHg 85%
    23:00 +2°C° 0 mm 5 m/s 748 mmHg 85%

    31 Janvier, Vendredi

    Heure Température Précipitation Vent Pression Humidité
    00:00 +2°C° 0 mm 5 m/s 748 mmHg 85%
    01:00 +2°C° 0 mm 5 m/s 748 mmHg 87%
    02:00 +4°C° 0 mm 4 m/s 748 mmHg 90%
    03:00 +4°C° 0 mm 4 m/s 747 mmHg 92%
    04:00 +4°C° 0 mm 4 m/s 747 mmHg 93%
    05:00 +5°C° 0 mm 4 m/s 747 mmHg 94%
    06:00 +5°C° 0 mm 4 m/s 747 mmHg 95%
    07:00 +5°C° 0 mm 4 m/s 748 mmHg 95%
    08:00 +6°C° 0 mm 4 m/s 748 mmHg 96%
    09:00 +6°C° 0 mm 4 m/s 748 mmHg 96%
    10:00 +7°C° 0 mm 5 m/s 748 mmHg 95%
    11:00 +8°C° 0 mm 5 m/s 748 mmHg 93%
    12:00 +9°C° 0 mm 5 m/s 748 mmHg 92%
    13:00 +9°C° 0 mm 5 m/s 748 mmHg 92%
    14:00 +9°C° 0 mm 5 m/s 748 mmHg 92%
    15:00 +9°C° 0 mm 5 m/s 748 mmHg 92%
    16:00 +9°C° 0 mm 5 m/s 748 mmHg 93%
    17:00 +9°C° 0 mm 5 m/s 748 mmHg 94%
    18:00 +9°C° 0 mm 5 m/s 748 mmHg 95%
    19:00 +9°C° 0.1 mm 5 m/s 748 mmHg 94%
    20:00 +9°C° 0.1 mm 5 m/s 748 mmHg 93%
    21:00 +9°C° 0.1 mm 5 m/s 748 mmHg 92%
    22:00 +9°C° 0.5 mm 5 m/s 748 mmHg 93%
    23:00 +9°C° 0.5 mm 5 m/s 748 mmHg 94%
    Voir plus